{"data":{"norad_id":66995,"intl_designator":"2025-292C","name":"2025-292C","alt_names":[],"object_type":"PAYLOAD","status":"ACTIVE","operator":null,"country":"PRC","launch_date":"2025-12-10","launch_site_code":"JSC","launch_vehicle":null,"mission":null,"orbit_class":"UNKNOWN","rcs_meters":null,"size_class":null,"mass_kg":null,"dimensions":null,"purposes":[],"wikipedia_slug":null,"has_3d_model":false,"image_url":null,"decayed_at":null,"tle_current":{"epoch":"2026-09-20T21:48:33.823584Z","epoch_age_seconds":76761,"freshness":"FRESH","line1":"1 66995U 25292C   26263.90872481  .00002487  00000+0  16868-3 0  9995","line2":"2 66995  97.6237 338.7914 0015190  36.4103 323.8155 15.07278620 42864","mean_motion":15.0727862,"eccentricity":0.001519,"inclination_deg":97.6237,"raan_deg":338.7914,"arg_perigee_deg":36.4103,"mean_anomaly_deg":323.8155,"bstar":0.00016868,"rev_number":4286,"period_min":95.536417812388,"perigee_km":534.00450634002,"apogee_km":555.03553837394,"semimajor_km":6922.657022357,"source":"CELESTRAK","updated_at":"2026-09-21T09:00:16.365291Z"}}}